Regional Weather Roundup
Issued by NWS

Home | Current Version | Previous Version | Graphics & Text | Print | Product List | Glossary Off
Versions: 1 2 3 4 5 6 7 8 9 10 11 12 13 14 15 16 17 18 19 20 21 22 23 24 25 26 27 28 29 30 31 32 33 34 35 36 37 38 39 40 41 42 43 44 45 46 47 48 49 50

000
ASUS43 KMPX 281310
RWRMN
WEATHER ROUNDUP FOR MINNESOTA
NATIONAL WEATHER SERVICE TWIN CITIES/CHANHASSEN MN
800 AM CDT MON JUL 28 2014


NOTE: "FAIR" INDICATES FEW OR NO CLOUDS BELOW 12,000 FEET WITH NO
SIGNIFICANT WEATHER AND/OR OBSTRUCTIONS TO VISIBILITY. N/A MEANS
CURRENT SKY AND/OR WEATHER CONDITIONS ARE NOT AVAILABLE.

MNZ060>063-068>070-281400-
   Twin Cities Metro

CITY           SKY/WX    TMP DP  RH WIND       PRES   REMARKS
TWIN CITIES    CLOUDY    64  57  78 N8        30.19S
ST PAUL        CLOUDY    63  56  78 N6        30.19S
CRYSTAL        CLOUDY    65  57  75 N5        30.18S
BLAINE         CLOUDY    64  59  82 N6        30.19S
LAKEVILLE      CLOUDY    63  57  82 CALM      30.19S
EDEN PRAIRIE   CLOUDY    66  58  75 NW7       30.18S
SOUTH ST PAUL  CLOUDY    64  56  74 N5        30.19S
LAKE ELMO      CLOUDY    61  59  94 NW3       30.20S
$$
MNZ001>005-007-008-013>017-022>024-027-028-281400-
   Northwest Minnesota

CITY           SKY/WX    TMP DP  RH WIND       PRES   REMARKS
BEMIDJI        PTSUNNY   60  55  84 NW7       30.24S
HALLOCK        SUNNY     59  55  88 N5        30.26S
ROSEAU         SUNNY     59  54  82 NW6       30.25R
WARROAD        SUNNY     57  55  94 NW3       30.24S
THIEF RVR FALL CLOUDY    59  55  88 NW7       30.26S
CROOKSTON      CLOUDY    61  57  88 NW6       30.27S
FOSSTON        CLOUDY    57  55  94 NW5       30.26S
DETROIT LAKES  PTSUNNY   59  55  88 NW6       30.27S
MOORHEAD       CLOUDY    61  59  94 N6        30.27S
PARK RAPIDS    CLOUDY    60  56  86 NW8       30.24R
$$
MNZ006-009>011-018-025>026-281400-
   North Central Minnesota

CITY           SKY/WX    TMP DP  RH WIND       PRES   REMARKS
BAUDETTE       SUNNY     60  58  92 W3        30.23R
FLAG ISLAND    SUNNY     57  55  94 NW7       30.22R
INTL FALLS     SUNNY     58  55  90 CALM      30.20R
WASKISH        SUNNY     61  57  88 CALM      30.23R
BIG FORK       SUNNY     55  54  94 SW1       30.22S
LONGVILLE      MOSUNNY   61  57  88 CALM      30.22S
GRAND RAPIDS   SUNNY     59  54  82 NW5       30.21S
CRANE LAKE     SUNNY     54  54 100 CALM      30.20S
ORR            SUNNY     57  52  82 NW5       30.18R
COOK           MOSUNNY   55  54  94 W3        30.20S
$$
MNZ012-019>021-037-281400-
   Northeast Minnesota

CITY           SKY/WX    TMP DP  RH WIND       PRES   REMARKS
DULUTH         MOSUNNY   60  54  80 NW6       30.18R
ELY            SUNNY     59  54  82 NW5       30.17S
HIBBING        SUNNY     61  54  77 NW7       30.20R
EVELETH        SUNNY     59  52  77 NW9       30.20R
DULUTH HARBOR  MOSUNNY   61  57  88 S3        30.17S
TWO HARBORS    SUNNY     61  52  72 NW6       30.15R
SILVER BAY     SUNNY     59  55  88 CALM      30.14R
GRAND MARAIS     N/A     64  55  72 VRB6      30.10S
G MARAIS ARPRT   N/A     57  50  77 NW6       30.14S
$$
MNZ029>031-032-039>041-046>048-054>057-064-281400-
   West Central Minnesota

CITY           SKY/WX    TMP DP  RH WIND       PRES   REMARKS
FERGUS FALLS   CLOUDY    61  55  82 N8        30.26R
WHEATON        CLOUDY    59  55  88 W7        30.28R
MORRIS         CLOUDY    61  59  94 NW7       30.25R
ALEXANDRIA     CLOUDY    62  57  83 N7        30.26R
ELBOW LAKE     CLOUDY    59  58  97 NW7       30.26R
WADENA         CLOUDY    59  55  88 NW5       30.23F
GLENWOOD       CLOUDY    61  59  94 N5        30.25R
APPLETON       CLOUDY    63  57  82 NW7       30.25R
BENSON         CLOUDY    63  61  94 N5        30.25R
ORTONVILLE     CLOUDY    63  55  77 N8        30.26R
MADISON        PTSUNNY   64  61  88 N9        30.26R
WILLMAR        FAIR      63  61  94 NW6       30.25R
$$
MNZ033>034-036-042>043-049>051-058-059-281400-
   Central Minnesota

CITY           SKY/WX    TMP DP  RH WIND       PRES   REMARKS
ST CLOUD       CLOUDY    65  57  75 NW6       30.21S
SAUK CENTRE    CLOUDY    61  57  86 NW7       30.24S
PAYNESVILLE    CLOUDY    60  57  91 W6        30.24R
AITKIN         PTSUNNY   64  57  77 NW3       30.20S
PINE RIVER     PTSUNNY   64  57  77 N7        30.25S
BRAINERD       PTSUNNY   63  57  81 NW6       30.22S
STAPLES        CLOUDY    59  55  88 NW3       30.23S
LONG PRAIRIE   CLOUDY    59  55  88 NW3       30.24S
LITTLE FALLS   CLOUDY    61  54  77 CALM      30.22S
LITCHFIELD     CLOUDY    63  63 100 NW7       30.23S
BUFFALO        CLOUDY    64  58  81 NW6       30.21S
MAPLE LAKE     CLOUDY    64  60  88 NW5       30.22S
$$
MNZ037-044-045-052-053-281400-
   East Central Minnesota

CITY           SKY/WX    TMP DP  RH WIND       PRES   REMARKS
PRINCETON      CLOUDY    64  57  77 N3        30.20S
MORA           CLOUDY    59  54  82 CALM      30.22R
CAMBRIDGE      CLOUDY    64  54  68 CALM      30.18S
RUSH CITY      CLOUDY    60  56  87 CALM      30.20S
MOOSE LAKE     CLOUDY    59  55  88 CALM      30.18S
HINCKLEY       CLOUDY    61  55  82 NW3       30.19S
CLOQUET        PTSUNNY   59  55  88 NW6       30.19S
MCGREGOR       CLOUDY    59  55  88 NW6       30.21S
$$
MNZ071>073-080-081-089-090-097-098-281400-
   Southwest Minnesota

CITY           SKY/WX    TMP DP  RH WIND       PRES   REMARKS
MONTEVIDEO     CLOUDY    63  61  94 N6        30.25S
GRANITE FALLS  CLOUDY    61  60  94 NW6       30.26R
CANBY          CLOUDY    61  57  88 NW8       30.27S
MARSHALL       CLOUDY    61  55  82 NW7       30.25R
REDWOOD FALLS  CLOUDY    63  61  93 NW7       30.23R
OLIVIA         CLOUDY    63  59  88 NW6       30.22S
PIPESTONE      CLOUDY    59  55  88 N6        30.27R
WINDOM         CLOUDY    61  57  88 NW8       30.24S
WORTHINGTON    CLOUDY    61  57  88 N10       30.26R
JACKSON        CLOUDY    61  57  88 NW7       30.24S
TRACY          CLOUDY    60  59  96 CALM      30.26R
SLAYTON        CLOUDY    60  58  94 CALM      30.27R
$$
MNZ065>067-074>077-082>085-091>093-281400-
   South Central Minnesota

CITY           SKY/WX    TMP DP  RH WIND       PRES   REMARKS
MANKATO        CLOUDY    63  57  82 NW6       30.21R
NEW ULM        PTSUNNY   63  63 100 NW8       30.22R
ST JAMES       CLOUDY    64  61  88 NW6       30.23S
FAIRMONT       CLOUDY    63  57  82 N8        30.22S
GLENCOE        MOSUNNY   64  59  84 NW5       30.20S
FARIBAULT      CLOUDY    66  57  72 NW3       30.20S
OWATONNA       CLOUDY    63  57  82 NW5       30.20S
WASECA         CLOUDY    59  54  82 NW5       30.23R
ALBERT LEA     CLOUDY    63  61  94 N3        30.21R
$$
MNZ078>079-086>088-094>096-281400-
   Southeast Minnesota

CITY           SKY/WX    TMP DP  RH WIND       PRES   REMARKS
ROCHESTER      MOSUNNY   62  57  83 NW7       30.21R
RED WING       CLOUDY    61  59  94 CALM      30.17S
STANTON        CLOUDY    65  58  78 NW3       30.18S
DODGE CENTER   PTSUNNY   63  59  88 NW7       30.20R
WINONA         CLOUDY    61  57  88 CALM      30.17S
AUSTIN         PTSUNNY   63  57  82 NW6       30.20R
PRESTON        CLOUDY    58  58 100 NW7       30.19R
$$
ABBREVIATIONS USED IN REMARKS
   TC - TEMPERATURES IN CELSIUS
  WCI - WIND CHILL INDEX
   HX - HEAT INDEX
  VSB - VISIBILITY
$$



USA.gov is the U.S. government's official web portal to all federal, state and local government web resources and services.